TimeMDT,TemperatureF,Dew PointF,Humidity,Sea Level PressureIn,VisibilityMPH,Wind Direction,Wind SpeedMPH,Gust SpeedMPH,PrecipitationIn,Events,Conditions,WindDirDegrees,DateUTC
12:51 AM,66.0,50.0,56,29.88,10.0,Calm,Calm,-,N/A,,Clear,0,2013-07-17 06:51:00
1:51 AM,64.0,50.0,60,29.88,10.0,Variable,4.6,-,N/A,,Clear,0,2013-07-17 07:51:00
2:51 AM,62.1,51.1,67,29.88,10.0,Calm,Calm,-,N/A,,Clear,0,2013-07-17 08:51:00
3:51 AM,60.1,51.1,72,29.91,10.0,ENE,3.5,-,N/A,,Clear,60,2013-07-17 09:51:00
4:51 AM,57.9,51.1,78,29.91,10.0,Calm,Calm,-,N/A,,Clear,0,2013-07-17 10:51:00
5:51 AM,57.9,51.1,78,29.95,10.0,Calm,Calm,-,N/A,,Clear,0,2013-07-17 11:51:00
6:51 AM,57.9,51.1,78,29.98,10.0,Calm,Calm,-,N/A,,Clear,0,2013-07-17 12:51:00
7:51 AM,60.1,52.0,75,30.01,10.0,Calm,Calm,-,N/A,,Clear,0,2013-07-17 13:51:00
8:51 AM,68.0,53.1,59,30.01,10.0,Calm,Calm,-,N/A,,Clear,0,2013-07-17 14:51:00
9:51 AM,69.1,54.0,58,30.02,10.0,Calm,Calm,-,N/A,,Clear,0,2013-07-17 15:51:00
10:51 AM,77.0,52.0,42,30.01,6.0,South,11.5,-,N/A,,Haze,170,2013-07-17 16:51:00
11:51 AM,79.0,50.0,36,30.02,10.0,SSE,13.8,-,N/A,,Clear,160,2013-07-17 17:51:00
12:51 PM,81.0,48.9,33,30.02,10.0,South,13.8,20.7,N/A,,Clear,170,2013-07-17 18:51:00
1:51 PM,84.0,39.9,21,30.02,10.0,South,15.0,-,N/A,,Clear,170,2013-07-17 19:51:00
2:51 PM,82.9,36.0,19,30.03,10.0,South,10.4,19.6,N/A,,Clear,190,2013-07-17 20:51:00
3:51 PM,84.9,33.1,16,30.02,10.0,SW,9.2,-,N/A,,Clear,230,2013-07-17 21:51:00
4:51 PM,86.0,25.0,11,30.02,10.0,SW,9.2,20.7,N/A,,Clear,220,2013-07-17 22:51:00
5:51 PM,84.0,23.0,11,30.01,10.0,SSW,6.9,-,N/A,,Clear,200,2013-07-17 23:51:00
6:51 PM,84.0,26.1,12,30.00,10.0,SW,6.9,-,N/A,,Clear,230,2013-07-18 00:51:00
7:51 PM,82.0,28.9,14,30.00,10.0,SE,5.8,-,N/A,,Clear,140,2013-07-18 01:51:00
8:51 PM,79.0,33.1,19,30.00,10.0,WNW,5.8,-,N/A,,Clear,290,2013-07-18 02:51:00
9:51 PM,73.0,34.0,24,30.03,10.0,North,6.9,-,N/A,,Clear,350,2013-07-18 03:51:00
10:51 PM,72.0,46.9,41,30.04,10.0,North,10.4,-,N/A,,Clear,10,2013-07-18 04:51:00
11:51 PM,70.0,45.0,41,30.06,10.0,North,5.8,-,N/A,,Clear,350,2013-07-18 05:51:00